Notices

What's New in latest Release from April 7th, 2021:

- Updated Glossary, including Speed of Maximum Gust, and Total Hourly Precipitation

- Updated national and regional climate services offices contacts and prices information

- Addition of station inventory lists for 1981-2010, 1971-2000, and 1961-1990 Normals.

If you haven't already, please take our survey and provide feedback about our website: https://eccc.sondage-survey.ca/f/LanguageSelection.aspx?s=442ca660-fcf1-47c0-95a9-59707d6fd709

Hourly Data Report for April 11, 2020

CLYDE RIVER A
NUNAVUT
Current Station Operator: NAVCAN

70°29'09.000" N
68°31'01.000" W
26.50 m
2400804
71090
YCY

Download Data

Hourly Data (April 2020)
Hourly Data Report for April 11, 2020
TIME
LST
Temp Definition
°C
Dew Point Definition
°C
Rel Hum Definition
%
Precip. Amount Definition
mm

Wind Dir Definition
10's deg

Wind Spd Definition
km/h
Visibility Definition
km
Stn Press Definition
kPa
Hmdx Definition


Wind Chill Definition


Weather Definition


00:00 -15.2 -16.2 92 0.0 32 28 2.8 101.84   -26 Snow
01:00 -16.0 -17.2 91 0.0 31 26 2.4 101.77   -27 Snow
02:00 -17.1 -18.5 89 0.0 32 24 16.1 101.73   -28 LegendNANA
03:00 -17.3 -18.6 90 0.0 32 17 2.8 101.72   -26 Snow
04:00 -17.7 -19.3 88 0.0 34 9 16.1 101.66   -24 LegendNANA
05:00 -17.0 -18.3 90 0.0 32 17 16.1 101.64   -26 LegendNANA
06:00 -15.2 -16.6 89 0.0 32 28 16.1 101.57   -26 LegendNANA
07:00 -14.1 -15.8 87 0.0 31 28 16.1 101.53   -25 LegendNANA
08:00 -13.4 -15.6 84 0.0 32 28 16.1 101.48   -24 LegendNANA
09:00 -12.0 -14.8 80 0.0 33 28 16.1 101.40   -22 LegendNANA
10:00 -13.7 -15.9 84 0.0 33 26 16.1 101.33   -24 LegendNANA
11:00 -13.1 -15.3 84 0.0 33 22 16.1 101.30   -22 LegendNANA
12:00 -13.7 -15.6 86 0.0 34 21 16.1 101.31   -23 LegendNANA
13:00 -14.2 -15.8 88 0.0 34 28 16.1 101.24   -25 LegendNANA
14:00 -13.6 -15.3 87 0.0 33 24 16.1 101.21   -23 LegendNANA
15:00 -14.3 -15.9 88 0.0 34 24 16.1 101.18   -24 LegendNANA
16:00 -13.4 -15.6 84 0.0 33 21 16.1 101.16   -22 LegendNANA
17:00 -14.3 -16.4 84 0.0 34 18 16.1 101.11   -23 LegendNANA
18:00 -15.5 -17.2 87 0.0 33 17 16.1 101.09   -24 LegendNANA
19:00 -16.2 -17.9 87 0.0 33 22 16.1 101.07   -26 LegendNANA
20:00 -17.0 -18.3 90 0.0 33 26 16.1 101.03   -28 LegendNANA
21:00 -17.9 -19.2 90 0.0 32 15 16.1 100.95   -26 LegendNANA
22:00 -17.7 -19.1 89 0.0 33 24 11.3 100.85   -28 Snow
23:00 -16.7 -18.2 88 0.0 32 26 16.1 100.81   -28 LegendNANA

Notes on Data Quality.

Legend

  • E = Estimated
  • M = Missing
  • NA = Not Available*
  • [empty] = Indicates an unobserved value
Date modified: